Wind_Speed
17 17 18 18 18 18 19 20 21 21 21 21 21 19 18 18 18 18 18 18 18 18 20 22 23 25 25 24 23 21 19 19 18 17 17 16 15 14 12 11 9 7 5
18 18 18 19 19 19 19 20 20 21 22 22 21 20 20 20 20 21 21 20 20 19 20 23 24 25 28 28 27 25 23 22 21 20 19 19 18 16 15 13 11 9 7
19 20 19 20 20 20 21 21 21 21 22 22 22 22 21 21 21 21 22 22 22 22 22 23 25 26 28 30 30 29 28 26 24 23 22 21 20 19 18 16 15 12 10
20 20 20 20 20 21 20 21 21 21 22 23 23 23 23 22 23 23 23 24 23 23 24 24 25 27 28 30 32 33 31 30 28 27 25 24 23 22 21 19 18 16 14
20 20 20 20 21 21 21 21 21 22 22 23 23 23 23 23 24 25 25 26 25 25 25 25 26 27 28 30 32 35 35 33 32 30 29 27 26 24 23 22 20 19 17
19 20 20 20 21 21 20 21 21 21 22 22 22 22 23 23 24 25 26 26 27 27 27 27 27 27 27 29 32 36 37 36 35 34 32 31 29 27 26 24 23 21 20
17 18 18 18 19 19 19 20 20 21 21 21 22 22 23 23 24 25 26 27 27 28 29 29 29 29 29 29 30 35 38 38 38 37 36 35 33 31 29 28 26 24 22
16 16 16 17 17 17 17 18 18 19 20 21 21 22 22 23 23 24 26 27 28 29 30 31 31 32 31 32 30 33 38 40 40 39 39 38 37 35 33 31 29 27 26
15 15 16 16 16 16 16 17 17 18 19 20 21 21 22 23 24 25 26 27 28 29 30 31 32 33 34 33 33 33 36 40 42 42 42 41 41 39 37 35 33 31 29
16 16 16 16 16 16 17 17 17 18 19 20 20 21 22 23 24 25 26 27 28 29 30 31 32 34 35 35 35 35 36 38 42 43 43 43 43 43 41 39 37 35 32
16 17 17 18 18 18 18 19 19 20 20 21 22 22 23 24 25 26 27 28 28 30 31 32 33 34 35 36 37 36 37 38 41 43 43 43 44 45 44 42 40 38 36
17 18 19 19 20 20 20 21 21 22 23 24 24 25 25 26 27 28 29 30 31 31 31 32 34 35 35 36 38 38 38 39 41 44 45 45 45 46 46 45 43 41 39
19 19 20 20 21 22 22 23 24 25 25 26 27 28 28 28 29 30 31 31 32 33 34 34 35 36 36 36 38 39 40 40 42 43 44 46 46 47 47 47 45 44 42
20 20 21 22 23 24 25 26 26 27 28 29 30 30 31 32 32 33 33 34 34 35 36 37 37 38 38 38 38 39 40 41 42 44 44 45 47 47 48 48 47 46 45
21 21 23 24 25 26 27 28 29 30 30 31 32 33 34 35 35 36 36 37 37 37 37 39 40 40 40 40 40 40 41 42 43 44 45 45 46 47 49 49 48 47 47
22 24 25 26 28 29 30 31 32 32 33 34 35 35 36 37 38 38 39 39 39 39 39 40 41 42 42 42 42 42 42 43 44 45 45 46 46 46 48 49 49 48 47
24 26 27 29 30 31 32 33 34 35 36 37 37 38 38 39 39 40 40 40 41 41 41 40 42 43 43 43 44 44 44 44 44 45 46 47 48 47 47 48 50 49 48
26 27 29 31 32 33 34 35 36 37 38 38 39 39 39 40 39 40 40 40 41 41 41 41 42 43 44 45 45 45 46 45 45 45 46 48 48 48 48 47 48 49 49
29 30 32 33 34 35 36 37 38 39 39 39 40 40 40 39 39 39 39 40 40 41 41 41 41 43 44 45 45 45 46 46 45 45 46 47 47 48 48 48 48 48 49
32 33 34 35 36 37 38 39 40 41 41 40 40 39 39 38 37 37 38 38 39 40 40 40 41 41 43 44 45 45 45 46 46 46 46 47 46 47 48 47 48 48 48
34 35 36 37 38 40 40 41 42 42 41 40 39 38 37 36 36 36 36 36 37 38 38 39 39 40 41 42 44 45 45 45 45 45 45 45 46 46 47 47 48 48 49
37 38 38 39 41 42 42 42 42 42 41 39 38 37 36 35 35 34 34 35 35 36 37 38 38 38 39 40 42 43 44 44 43 44 44 44 45 46 46 46 48 48 48
39 40 41 42 43 44 43 43 43 42 40 39 37 36 35 34 34 33 33 34 34 35 35 36 36 36 37 39 40 42 43 44 43 43 43 43 44 45 45 46 47 49 48
41 42 43 45 45 45 45 44 43 42 40 38 37 36 35 34 34 33 32 32 32 33 34 34 34 35 36 37 39 41 42 43 44 43 43 42 43 44 45 44 45 47 49
43 43 45 47 47 47 46 45 44 41 39 38 37 36 34 33 33 33 32 31 31 32 33 33 33 34 35 36 38 40 42 43 43 43 44 43 43 42 43 44 44 45 47
45 45 47 49 48 48 47 46 44 41 39 37 36 35 34 32 32 32 32 32 32 32 33 33 33 34 34 36 37 38 40 43 43 44 45 44 43 43 42 43 43 43 45
Wind_Direction
288 286 283 282 282 280 280 277 271 266 265 265 265 267 265 262 265 265 261 259 258 254 248 241 238 234 231 229 228 226 225 224 222 219 218 215 213 211 210 210 209 208 204
289 286 284 284 284 283 281 278 274 271 268 267 267 265 264 262 263 262 261 258 257 257 251 244 241 239 234 231 229 227 226 226 225 223 221 220 219 218 217 217 218 219 221
292 290 289 287 285 283 280 278 276 274 272 271 269 267 265 263 262 261 261 261 258 258 255 249 243 241 237 233 231 229 227 227 226 225 224 224 223 223 222 222 222 224 227
294 293 292 289 286 284 282 279 278 276 273 272 270 268 267 265 263 260 259 260 258 256 256 253 247 243 239 235 233 230 229 228 228 227 226 226 226 226 226 225 226 227 229
294 293 293 290 287 285 284 281 280 277 275 274 272 270 268 265 262 260 259 258 257 255 254 252 249 246 242 238 235 231 230 229 229 228 228 228 228 229 229 228 228 228 229
298 297 295 292 290 288 285 283 281 279 277 275 274 272 269 266 263 260 259 258 256 254 253 251 249 248 246 243 238 233 231 230 230 229 229 229 229 230 231 231 231 231 230
304 302 300 296 293 290 287 285 282 280 279 277 275 273 272 268 266 264 261 259 257 255 253 251 249 248 248 247 241 236 233 231 230 230 230 230 230 231 232 232 232 232 232
312 309 306 303 299 296 292 288 285 282 280 279 277 276 273 271 269 267 263 261 258 256 253 251 250 249 249 248 245 240 235 233 231 231 232 232 231 231 232 233 233 234 234
321 318 314 311 306 303 299 295 291 287 285 282 280 277 276 274 272 268 266 263 261 259 256 253 251 249 249 248 246 244 239 235 233 233 233 233 232 231 232 233 234 234 235
324 322 319 316 313 308 304 301 297 294 291 288 285 281 279 277 275 272 269 266 263 261 258 255 252 250 249 248 246 244 241 238 235 234 234 234 233 232 231 232 234 234 236
324 323 320 318 315 311 307 304 301 298 295 292 289 286 283 280 278 276 273 269 265 262 260 257 255 252 250 248 247 244 241 239 236 235 235 235 234 233 232 233 234 234 235
321 319 317 316 315 312 309 306 304 301 298 295 292 289 286 283 281 278 275 272 269 265 262 259 256 254 252 251 248 244 242 240 237 236 236 236 235 234 233 233 234 234 235
318 317 317 316 315 313 310 308 305 303 300 298 295 291 288 285 283 280 277 274 272 269 266 262 259 256 254 252 248 246 243 240 238 237 237 237 236 236 235 234 233 234 235
319 319 318 317 316 313 311 308 306 304 301 298 296 293 290 287 284 281 279 276 273 271 268 264 261 258 255 253 249 247 244 241 239 238 239 238 236 236 235 235 234 234 234
320 319 318 317 316 314 311 309 307 304 301 299 296 293 290 288 285 282 279 276 274 271 268 266 263 259 256 253 251 249 245 243 241 239 238 238 237 236 235 235 235 234 233
319 319 319 317 315 313 312 310 308 305 303 300 297 294 291 288 285 282 279 276 273 271 268 266 264 260 257 254 251 250 247 244 242 240 238 237 237 237 236 235 234 233 232
318 319 319 319 317 315 313 311 309 307 304 301 298 295 292 289 286 282 279 276 273 271 268 265 263 261 258 254 251 249 247 245 243 241 239 237 237 236 235 234 233 232 230
316 318 318 319 318 317 315 313 311 308 306 303 299 296 292 289 285 282 279 276 273 271 268 265 263 261 258 255 251 249 247 245 243 240 239 238 237 236 235 234 232 231 231
316 317 317 318 318 318 317 315 313 310 307 304 300 297 293 289 285 282 279 276 273 271 268 265 262 260 258 255 251 249 246 244 243 240 239 237 236 234 234 234 232 231 231
315 316 317 318 319 319 319 317 314 312 309 305 301 298 294 289 285 282 279 276 273 271 268 265 262 260 257 254 251 248 246 243 241 239 238 236 235 233 233 233 232 231 230
315 315 316 318 318 319 319 318 316 313 310 306 302 298 294 290 286 283 280 277 274 272 269 266 263 260 257 253 250 246 245 242 240 239 238 237 235 234 233 232 232 232 230
314 314 315 317 318 319 319 318 316 314 310 307 303 299 295 291 288 285 281 278 275 272 269 266 264 260 257 253 249 246 244 241 238 237 236 235 235 234 233 233 231 230 230
315 315 316 317 317 319 320 319 316 314 311 307 303 299 296 292 289 286 282 280 277 273 270 267 264 261 257 253 249 245 243 240 236 235 235 234 233 232 233 233 232 230 229
316 316 316 317 317 317 318 317 316 314 310 306 302 299 296 293 290 287 285 282 278 274 271 268 264 261 258 255 250 245 242 239 235 234 233 233 232 232 231 232 232 230 229
316 316 317 317 317 316 316 316 315 313 309 306 302 299 297 293 291 288 286 283 279 276 273 269 265 262 259 256 251 246 242 239 235 233 232 232 231 229 229 230 230 229 228
315 316 319 318 317 316 315 315 314 312 308 305 302 299 297 294 291 289 286 283 280 277 274 270 266 263 261 257 252 247 243 239 235 232 230 230 230 229 228 227 227 228 227
Height
5871 5870 5869 5869 5869 5869 5869 5869 5869 5869 5870 5871 5872 5873 5874 5874 5875 5876 5877 5879 5880 5881 5883 5886 5888 5891 5893 5896 5899 5901 5904 5906 5909 5911 5913 5915 5918 5920 5922 5924 5926 5927 5928
5867 5866 5866 5865 5865 5865 5865 5864 5865 5865 5866 5866 5868 5869 5869 5870 5871 5871 5873 5875 5875 5877 5879 5881 5883 5886 5889 5892 5895 5898 5900 5903 5906 5908 5911 5913 5916 5918 5920 5922 5924 5926 5928
5862 5862 5861 5861 5860 5860 5860 5860 5860 5860 5861 5861 5862 5863 5864 5865 5866 5867 5867 5869 5871 5872 5874 5876 5878 5881 5883 5887 5890 5893 5896 5899 5902 5905 5908 5911 5913 5915 5918 5920 5922 5925 5927
5858 5857 5857 5856 5856 5855 5855 5855 5855 5855 5856 5856 5857 5858 5859 5860 5861 5861 5862 5864 5866 5867 5869 5870 5873 5875 5878 5881 5884 5888 5891 5895 5898 5901 5904 5907 5910 5912 5915 5917 5920 5922 5924
5854 5853 5853 5852 5851 5851 5850 5850 5850 5850 5850 5850 5851 5852 5853 5854 5855 5856 5857 5858 5860 5862 5863 5865 5867 5869 5872 5875 5878 5882 5886 5889 5893 5896 5900 5903 5906 5909 5912 5914 5917 5919 5922
5850 5849 5848 5847 5846 5846 5845 5845 5845 5845 5845 5845 5845 5846 5847 5848 5848 5850 5851 5852 5854 5856 5857 5859 5861 5863 5866 5868 5871 5875 5879 5883 5887 5891 5894 5898 5901 5905 5908 5911 5913 5916 5919
5847 5845 5844 5843 5842 5841 5841 5840 5840 5840 5840 5840 5840 5840 5841 5841 5842 5843 5844 5846 5847 5849 5850 5852 5855 5857 5859 5862 5864 5868 5872 5876 5880 5884 5888 5892 5896 5900 5903 5906 5909 5912 5915
5844 5842 5841 5840 5839 5838 5837 5836 5835 5835 5835 5835 5835 5835 5835 5836 5836 5837 5838 5839 5840 5841 5843 5845 5848 5850 5852 5855 5858 5860 5864 5868 5873 5877 5881 5885 5890 5894 5897 5901 5905 5908 5911
5841 5840 5838 5837 5835 5834 5833 5832 5831 5830 5830 5830 5829 5829 5829 5829 5830 5830 5831 5832 5833 5834 5836 5838 5840 5842 5845 5847 5850 5853 5856 5860 5864 5869 5873 5878 5882 5887 5891 5895 5899 5902 5906
5839 5837 5835 5834 5832 5831 5830 5829 5827 5826 5825 5825 5824 5824 5823 5823 5823 5823 5824 5825 5825 5826 5828 5830 5832 5834 5836 5839 5842 5845 5848 5852 5856 5860 5865 5869 5874 5879 5883 5888 5892 5896 5900
5837 5835 5833 5831 5829 5828 5826 5825 5823 5822 5821 5820 5819 5818 5817 5817 5816 5816 5817 5817 5818 5819 5820 5822 5824 5826 5828 5830 5833 5836 5839 5843 5846 5851 5856 5860 5865 5870 5875 5880 5885 5889 5894
5834 5832 5830 5828 5826 5824 5822 5820 5819 5817 5815 5814 5812 5811 5811 5810 5809 5809 5809 5809 5809 5811 5812 5813 5815 5816 5819 5821 5824 5827 5830 5834 5837 5842 5846 5851 5856 5861 5866 5871 5877 5882 5886
5831 5829 5827 5824 5822 5820 5818 5816 5814 5812 5809 5807 5806 5804 5803 5802 5801 5801 5801 5800 5800 5801 5802 5804 5805 5807 5809 5811 5814 5817 5820 5824 5828 5832 5836 5841 5846 5851 5857 5862 5868 5873 5878
5827 5825 5822 5820 5817 5815 5812 5810 5808 5805 5803 5801 5798 5797 5795 5793 5792 5792 5791 5791 5791 5792 5792 5793 5794 5796 5799 5801 5803 5807 5810 5814 5818 5822 5826 5831 5836 5841 5847 5853 5858 5864 5869
5823 5820 5818 5815 5812 5809 5806 5803 5801 5798 5795 5793 5790 5788 5786 5784 5783 5782 5781 5781 5781 5781 5782 5782 5783 5785 5788 5790 5793 5796 5800 5803 5807 5812 5816 5821 5826 5831 5837 5843 5848 5854 5860
5818 5815 5812 5809 5806 5803 5800 5796 5793 5790 5787 5784 5781 5778 5776 5774 5772 5771 5769 5769 5769 5769 5771 5771 5771 5773 5776 5779 5782 5785 5788 5792 5797 5801 5805 5810 5815 5821 5826 5832 5838 5844 5850
5813 5810 5807 5803 5800 5796 5792 5788 5785 5781 5777 5774 5771 5768 5765 5762 5760 5759 5758 5757 5756 5757 5758 5759 5759 5761 5763 5766 5770 5773 5777 5781 5785 5790 5794 5799 5804 5810 5815 5821 5827 5833 5840
5808 5804 5800 5796 5792 5788 5784 5780 5776 5771 5767 5763 5760 5756 5753 5751 5749 5747 5745 5744 5744 5744 5745 5747 5747 5748 5750 5753 5757 5761 5764 5769 5773 5778 5782 5787 5793 5798 5804 5810 5817 5823 5829
5801 5797 5793 5789 5785 5780 5775 5771 5766 5761 5757 5752 5748 5744 5741 5739 5737 5734 5733 5732 5731 5731 5732 5733 5735 5736 5738 5740 5744 5748 5752 5757 5761 5766 5771 5776 5781 5787 5793 5799 5806 5812 5819
5795 5791 5786 5781 5776 5771 5766 5761 5756 5751 5746 5741 5736 5733 5729 5727 5724 5722 5721 5720 5719 5719 5719 5720 5722 5723 5725 5727 5731 5735 5739 5744 5749 5754 5759 5764 5770 5775 5782 5788 5795 5802 5808
5788 5783 5778 5773 5768 5762 5757 5751 5746 5740 5735 5730 5725 5721 5718 5715 5713 5711 5709 5708 5707 5707 5707 5708 5709 5711 5713 5715 5718 5722 5727 5732 5737 5742 5748 5754 5759 5765 5770 5777 5784 5790 5797
5780 5775 5770 5764 5759 5753 5747 5741 5735 5730 5724 5719 5715 5711 5707 5704 5702 5700 5698 5697 5696 5696 5696 5696 5697 5699 5701 5703 5706 5710 5715 5720 5727 5731 5736 5742 5747 5753 5759 5766 5772 5779 5786
5771 5766 5761 5755 5749 5743 5737 5731 5724 5719 5713 5708 5704 5700 5697 5694 5691 5689 5687 5686 5685 5684 5684 5685 5686 5687 5689 5692 5695 5699 5703 5708 5714 5719 5724 5731 5736 5742 5748 5754 5761 5768 5775
5761 5756 5751 5745 5739 5733 5727 5721 5714 5709 5703 5698 5694 5690 5686 5683 5681 5679 5677 5676 5675 5674 5673 5674 5675 5676 5677 5679 5683 5687 5691 5696 5703 5707 5713 5719 5725 5731 5737 5743 5749 5756 5764
5751 5746 5740 5735 5728 5722 5716 5710 5704 5698 5693 5688 5683 5680 5676 5673 5671 5668 5667 5666 5664 5663 5662 5663 5664 5665 5666 5668 5671 5675 5679 5684 5691 5697 5701 5708 5714 5719 5725 5732 5738 5745 5752
5740 5735 5729 5724 5718 5711 5705 5699 5693 5688 5683 5678 5674 5669 5666 5664 5661 5658 5656 5655 5654 5653 5652 5652 5653 5654 5655 5657 5659 5663 5667 5672 5678 5684 5690 5696 5702 5708 5715 5722 5728 5735 5742